Home   Weather   New Port Richey   Past weeks
Flag for USA

Past Weather in New Port Richey, Florida, USA — Yesterday and Last 2 Weeks

Now
86 °F

Scattered clouds.


Feels Like: 91 °F
Forecast: 84 / 75 °F
Wind: No wind

Location: Clearwater Air Park

Current Time: Jun 16, 2019 at 2:55:36 pm

Latest Report: Jun 16, 2019 at 1:55 pm


Visibility: 10 mi

Pressure: 30.02 "Hg

Humidity: 59%

Dew Point: 70 °F

Location of New Port RicheyLocation

Past Weather in New Port Richey — Graph

°F

New Port Richey Temperature Yesterday

Maximum temperature yesterday: 86 °F (at 12:15 pm)
Minimum temperature yesterday: 73 °F (at 2:55 am)
Average temperature yesterday: 79 °F

High & Low Weather Summary for the Past Weeks

 TemperatureHumidityPressure
High88 °F (Jun 4, 11:35 am)100% (Jun 8, 9:35 pm)30.13 "Hg (Jun 8, 9:35 pm)
Low70 °F (Jun 10, 11:35 am)3% (Jun 1, 10:55 pm)29.83 "Hg (Jun 7, 6:35 pm)
Average79 °F78%30.00 "Hg
* Reported Jun 1 1:55 pm — Jun 16 1:35 pm, New Port Richey. Weather by CustomWeather, © 2019

Note: Actual official high and low records may vary slightly from our data, if they occured in-between our weather recording intervals... More about our weather records

Advertising

New Port Richey Weather History for the Previous 24 Hours

Scroll right to see more
 ConditionsComfort  
Time TempWeatherWind HumidityBarometerVisibility
1:35 pm
Sun, Jun 16
86 °FScattered clouds.3 mph62%30.03 "Hg10 mi
1:15 pm86 °FSunny.5 mph62%30.04 "Hg10 mi
12:55 pm86 °FSunny.7 mph62%30.04 "Hg10 mi
12:35 pm82 °FSunny.7 mph70%30.05 "Hg10 mi
12:15 pm84 °FSunny.7 mph66%30.06 "Hg10 mi
11:55 am82 °FScattered clouds.6 mph70%30.07 "Hg10 mi
11:35 am82 °FScattered clouds.6 mph70%30.06 "Hg10 mi
11:15 am81 °FBroken clouds.6 mph79%30.07 "Hg10 mi
10:55 am81 °FLight rain. Broken clouds.6 mph79%30.07 "Hg10 mi
10:35 am81 °FScattered clouds.5 mph79%30.06 "Hg10 mi
10:15 am81 °FBroken clouds.6 mph79%30.06 "Hg10 mi
9:55 am81 °FMostly cloudy.6 mph79%30.06 "Hg10 mi
9:35 am81 °FPartly sunny.7 mph79%30.06 "Hg10 mi
9:15 am81 °FPartly sunny.5 mph79%30.05 "Hg10 mi
8:55 am79 °FPartly sunny.7 mph84%30.04 "Hg10 mi
8:35 am79 °FPartly sunny.6 mph84%30.04 "Hg10 mi
8:15 am79 °FLow clouds.No wind89%30.03 "Hg10 mi
7:55 am77 °FMostly cloudy.5 mph89%30.03 "Hg10 mi
7:35 am77 °FScattered clouds.3 mph89%30.02 "Hg10 mi
7:15 am75 °FSunny.3 mph94%30.01 "Hg10 mi
6:55 am75 °FSunny.5 mph94%30.01 "Hg10 mi
6:35 am75 °FSunny.3 mph94%30.01 "Hg10 mi
6:15 am75 °FClear.3 mph94%30.01 "Hg10 mi
5:55 am75 °FClear.3 mph94%30.00 "Hg10 mi
5:35 am75 °FClear.No wind94%30.00 "Hg10 mi
5:15 am75 °FClear.3 mph94%29.99 "Hg10 mi
4:55 am75 °FPassing clouds.3 mph94%30.00 "Hg10 mi
4:35 am75 °FPassing clouds.No wind94%30.00 "Hg10 mi
4:15 am75 °FClear.No wind94%30.00 "Hg10 mi
3:55 am75 °FClear.No wind94%30.01 "Hg10 mi
3:35 am75 °FClear.No wind94%30.01 "Hg10 mi
3:15 am75 °FClear.No wind94%30.01 "Hg10 mi
2:55 am73 °FClear.No wind100%30.02 "Hg10 mi
2:35 am73 °FClear.No wind100%30.02 "Hg10 mi
2:15 am73 °FClear.No wind94%30.03 "Hg10 mi
1:55 am73 °FClear.No wind94%30.03 "Hg10 mi
1:35 am73 °FClear.3 mph94%30.04 "Hg10 mi
1:15 am73 °FClear.5 mph94%30.04 "Hg10 mi
12:55 am73 °FPassing clouds.5 mph100%30.04 "Hg10 mi
12:35 am73 °FClear.5 mph94%30.05 "Hg10 mi
12:15 am77 °FClear.6 mph83%30.06 "Hg10 mi
11:55 pm
Sat, Jun 15
77 °FClear.No wind79%30.05 "Hg10 mi
11:35 pm75 °FClear.5 mph89%30.06 "Hg10 mi
11:15 pm75 °FClear.3 mph89%30.06 "Hg10 mi
10:55 pm75 °FPassing clouds.No wind89%30.09 "Hg10 mi
10:35 pm77 °FPassing clouds.No wind79%30.09 "Hg10 mi
10:15 pm77 °FMostly cloudy.9 mph79%30.10 "Hg10 mi
9:55 pm77 °FOvercast.12 mph83%30.08 "Hg10 mi
9:35 pm79 °FPassing clouds.13 mph79%30.07 "Hg10 mi
9:15 pm81 °FPartly cloudy.5 mph74%30.06 "Hg10 mi
8:55 pm81 °FOvercast.5 mph74%30.06 "Hg10 mi
8:35 pm81 °FPartly cloudy.6 mph74%30.06 "Hg10 mi
8:15 pm81 °FScattered clouds.6 mph74%30.04 "Hg10 mi
7:55 pm82 °FScattered clouds.7 mph70%30.03 "Hg10 mi
7:35 pm84 °FScattered clouds.3 mph66%30.03 "Hg10 mi
7:15 pm82 °FSunny.5 mph70%30.02 "Hg10 mi
6:55 pm82 °FSunny.5 mph70%30.02 "Hg10 mi
6:35 pm82 °FSunny.5 mph70%30.03 "Hg10 mi
6:15 pm84 °FSunny.8 mph66%30.02 "Hg10 mi
5:55 pm84 °FSunny.7 mph66%30.02 "Hg10 mi
5:35 pm86 °FSunny.8 mph59%30.02 "Hg10 mi
5:15 pm86 °FSunny.7 mph59%30.02 "Hg10 mi
4:35 pm86 °FSunny.3 mph55%30.04 "Hg10 mi
4:15 pm86 °FSunny.3 mph59%30.04 "Hg10 mi
3:55 pm86 °FSunny.No wind59%30.06 "Hg10 mi
3:35 pm84 °FSunny.No wind62%30.06 "Hg10 mi
3:15 pm84 °FScattered clouds.No wind62%30.07 "Hg10 mi
2:35 pm82 °FBroken clouds.7 mph66%30.09 "Hg10 mi
Weather by CustomWeather, © 2019

See weather overview